This is the latest recevied weather packets stored in our database for station/object SP6W-10. If no packets are shown the sender has not sent any weather packets the latest 10 day(s).
| Time | Temp. | Humidity | Pressure | Rain* | Wind** | Luminosity | Snow |
|---|---|---|---|---|---|---|---|
| 1777455776 | 23.89° C | 18% | 1029.1 hPa | - | - | - | - |
| 1777453979 | 23.89° C | 18% | 1029.2 hPa | - | - | - | - |
| 1777450376 | 23.89° C | 20% | 1029.2 hPa | - | - | - | - |
| 1777444976 | 24.44° C | 19% | 1028.8 hPa | - | - | - | - |
| 1777443172 | 24.44° C | 20% | 1028.5 hPa | - | - | - | - |
| 1777441372 | 24.44° C | 22% | 1028.1 hPa | - | - | - | - |
| 1777437772 | 24.44° C | 20% | 1027.5 hPa | - | - | - | - |
| 1777435972 | 25° C | 19% | 1027.3 hPa | - | - | - | - |
| 1777434172 | 25° C | 20% | 1027 hPa | - | - | - | - |
| 1777432373 | 25° C | 19% | 1026.7 hPa | - | - | - | - |
| 1777430572 | 25.56° C | 19% | 1026.5 hPa | - | - | - | - |
| 1777428772 | 25.56° C | 19% | 1026.3 hPa | - | - | - | - |
| 1777426972 | 26.11° C | 19% | 1026.2 hPa | - | - | - | - |
| 1777425172 | 26.11° C | 19% | 1026.1 hPa | - | - | - | - |
| 1777423372 | 26.67° C | 19% | 1025.8 hPa | - | - | - | - |
| 1777421573 | 26.67° C | 19% | 1025.4 hPa | - | - | - | - |
| 1777419768 | 27.22° C | 19% | 1025.3 hPa | - | - | - | - |
| 1777417968 | 27.22° C | 19% | 1025.3 hPa | - | - | - | - |
| 1777416168 | 27.78° C | 19% | 1025.4 hPa | - | - | - | - |
| 1777414368 | 28.33° C | 20% | 1025.4 hPa | - | - | - | - |
| 1777410772 | 28.89° C | 18% | 1025.5 hPa | - | - | - | - |
| 1777408968 | 28.33° C | 18% | 1025.4 hPa | - | - | - | - |
| 1777407168 | 28.89° C | 17% | 1025.3 hPa | - | - | - | - |
| 1777405368 | 28.33° C | 16% | 1025.3 hPa | - | - | - | - |
| 1777403568 | 27.78° C | 15% | 1025 hPa | - | - | - | - |
* Rain since midnight (hover to see other rain measurements)
** Current wind speed in m/s (hover to see current wind gust speed)